Regional Weather Roundup
Issued by NWS

Home | Current Version | Previous Version | Text Only | Print | Product List | Glossary On
Versions: 1 2 3 4 5 6 7 8 9 10 11 12 13 14 15 16 17 18 19 20 21 22 23 24 25 26 27 28 29 30 31 32 33 34 35 36 37 38 39 40 41 42 43 44 45 46 47 48 49 50
000
ASUS43 KMPX 302101
RWRMN
WEATHER ROUNDUP FOR MINNESOTA
NATIONAL WEATHER SERVICE TWIN CITIES/CHANHASSEN MN
400 PM CDT MON MAR 30 2015


NOTE: "FAIR" INDICATES FEW OR NO CLOUDS BELOW 12,000 FEET WITH NO
SIGNIFICANT WEATHER AND/OR OBSTRUCTIONS TO VISIBILITY. N/A MEANS
CURRENT SKY AND/OR WEATHER CONDITIONS ARE NOT AVAILABLE.

MNZ060>063-068>070-302200-
   Twin Cities Metro

CITY           SKY/WX    TMP DP  RH WIND       PRES   REMARKS
TWIN CITIES    PTSUNNY   54  33  45 SE13      29.82F
ST PAUL        PTSUNNY   54  31  41 S15       29.83F
CRYSTAL        CLOUDY    55  30  38 SE13      29.80F
BLAINE         PTSUNNY   55  34  44 SE12      29.81F
LAKEVILLE      CLOUDY    54  37  54 SE12      29.81F
EDEN PRAIRIE   PTSUNNY   57  33  40 SE12      29.80F
SOUTH ST PAUL  PTSUNNY   54  31  42 SE8       29.82F
LAKE ELMO      PTSUNNY   54  36  50 SE13      29.83F
$$
MNZ001>005-007-008-013>017-022>024-027-028-302200-
   Northwest Minnesota

CITY           SKY/WX    TMP DP  RH WIND       PRES   REMARKS
BEMIDJI        LGT RAIN  37  35  89 CALM      29.88R
HALLOCK        PTSUNNY   48  37  66 SW7       29.85S
ROSEAU         CLOUDY    48  37  66 SW7       29.85S
WARROAD        CLOUDY    46  36  66 W9        29.85S
THIEF RVR FALL CLOUDY    43  37  81 E7        29.87S
CROOKSTON      PTSUNNY   46  39  76 E9        29.86F
FOSSTON        CLOUDY    43  43 100 E8        29.86F
DETROIT LAKES  MOSUNNY   54  36  50 NE12      29.82R
MOORHEAD       SUNNY     61  30  31 NW8       29.81R
PARK RAPIDS    CLOUDY    43  35  73 NE12      29.84R
MAHNOMEN       CLOUDY    44  40  85 NE15      29.84F
$$
MNZ006-009>011-018-025>026-302200-
   North Central Minnesota

CITY           SKY/WX    TMP DP  RH WIND       PRES   REMARKS
BAUDETTE       CLOUDY    48  32  53 NW3       29.83F
FLAG ISLAND    PTSUNNY   39  30  70 S13       29.81S
INTL FALLS     CLOUDY    50  22  33 SW5       29.81F
WASKISH        CLOUDY    46  34  61 CALM      29.86S
BIG FORK       LGT RAIN  46  32  57 CALM      29.86R
LONGVILLE      LGT RAIN  39  36  87 CALM      29.87R
GRAND RAPIDS   CLOUDY    39  34  81 SW7       29.86R
ORR            CLOUDY    50  18  27 CALM      29.80R
COOK           CLOUDY    48  21  34 SW3       29.82R
WALKER         RAIN      37  34  90 CALM      29.87R
$$
MNZ012-019>021-037-302200-
   Northeast Minnesota

CITY           SKY/WX    TMP DP  RH WIND       PRES   REMARKS
DULUTH         CLOUDY    48  24  39 S8        29.81F
ELY            CLOUDY    48  18  29 NW3       29.81S
HIBBING        CLOUDY    48  24  39 NW3       29.82R
EVELETH        CLOUDY    48  23  37 E5        29.83R
DULUTH HARBOR  PTSUNNY   46  28  49 CALM      29.84R
TWO HARBORS    CLOUDY    54  28  37 S8        29.80S
SILVER BAY     PTSUNNY   50  21  32 S12       29.80S
GRAND MARAIS     N/A     38  30  73 S3        29.85F
G MARAIS ARPRT PTSUNNY   43  19  39 NW5       29.82F
$$
MNZ029>031-032-039>041-046>048-054>057-064-302200-
   West Central Minnesota

CITY           SKY/WX    TMP DP  RH WIND       PRES   REMARKS
FERGUS FALLS   SUNNY     63  34  34 NW20G28   29.79R
WHEATON        SUNNY     64  37  36 W22G36    29.79S
MORRIS         SUNNY     70  37  30 NW23G29   29.76R
ALEXANDRIA     MOSUNNY   59  33  37 S5        29.77F
ELBOW LAKE     FAIR      65  38  36 NW21G29   29.77R
WADENA         PTSUNNY   52  34  50 NE10      29.80R
GLENWOOD       SUNNY     63  34  34 SW6       29.77F
APPLETON       SUNNY     73  28  19 NW17G30   29.76S
BENSON         MOSUNNY   72  28  20 NW23G30   29.76S
ORTONVILLE     SUNNY     70  32  24 NW21G29   29.78R
MADISON        SUNNY     73  27  17 NW23G33   29.77R
WILLMAR        FAIR      66  32  28 CALM      29.77F
$$
MNZ033>034-036-042>043-049>051-058-059-302200-
   Central Minnesota

CITY           SKY/WX    TMP DP  RH WIND       PRES   REMARKS
ST CLOUD       MOSUNNY   56  32  40 SE12      29.78F
SAUK CENTRE    FAIR      57  38  48 SE9       29.78F
PAYNESVILLE    MOSUNNY   58  31  35 S3        29.78F
AITKIN         MIX PCPN  45  37  76 N5        29.84R
PINE RIVER     CLOUDY    41  37  87 NE5       29.89R
BRAINERD       CLOUDY    44  37  76 NE6       29.84R
STAPLES        CLOUDY    48  36  61 NE8       29.81R
LONG PRAIRIE   PTSUNNY   55  34  44 SE8       29.79F
LITTLE FALLS   PTSUNNY   52  32  46 SE7       29.82R
LITCHFIELD     SUNNY     64  34  32 CALM      29.78F
MAPLE LAKE     PTSUNNY   58  35  41 SE7       29.80F
$$
MNZ037-044-045-052-053-302200-
   East Central Minnesota

CITY           SKY/WX    TMP DP  RH WIND       PRES   REMARKS
PRINCETON      MOSUNNY   55  36  47 SE8       29.81F
MORA           CLOUDY    45  36  70 SE8       29.84F
CAMBRIDGE      PTSUNNY   54  37  54 SE8       29.80F
MOOSE LAKE     LGT RAIN  39  36  87 CALM      29.82F
HINCKLEY       LGT RAIN  45  37  76 E6        29.82F
CLOQUET        LGT RAIN  41  36  81 S7        29.84R
MCGREGOR       CLOUDY    41  37  87 CALM      29.86R
$$
MNZ071>073-080-081-089-090-097-098-302200-
   Southwest Minnesota

CITY           SKY/WX    TMP DP  RH WIND       PRES   REMARKS
MONTEVIDEO     SUNNY     73  30  20 N21G29    29.76F
GRANITE FALLS  MOSUNNY   74  31  20 W26G37    29.78F
CANBY          SUNNY     72  30  21 NW26G39   29.79S
MARSHALL       SUNNY     72  30  21 W26G35    29.78F
REDWOOD FALLS  MOSUNNY   72  28  19 W18G32    29.75F
OLIVIA         SUNNY     66  41  39 E5        29.75F
PIPESTONE      SUNNY     72  27  18 NW24G32   29.82F
WINDOM         SUNNY     73  25  16 W21G32    29.79F
WORTHINGTON    MOSUNNY   72  28  20 W25G35    29.82F
JACKSON        SUNNY     72  19  14 W17G37    29.81F
TRACY          SUNNY     73  30  20 W22G32    29.80S
SLAYTON        SUNNY     70  17  13 W22G36    29.82S
$$
MNZ065>067-074>077-082>085-091>093-302200-
   South Central Minnesota

CITY           SKY/WX    TMP DP  RH WIND       PRES   REMARKS
MANKATO        MOSUNNY   64  37  36 E7        29.79F
NEW ULM        SUNNY     68  32  26 E6        29.77F
FAIRMONT       SUNNY     72  12  10 W15G32    29.79S
GLENCOE        MOSUNNY   62  41  46 E9        29.79F
FARIBAULT      PTSUNNY   59  39  47 E8        29.80F
OWATONNA       MOSUNNY   61  39  44 E12       29.80F
WASECA         MOSUNNY   63  41  45 NE12      29.80F
ALBERT LEA     SUNNY     70  25  18 W14G21    29.79F
$$
MNZ078>079-086>088-094>096-302200-
   Southeast Minnesota

CITY           SKY/WX    TMP DP  RH WIND       PRES   REMARKS
ROCHESTER      CLOUDY    57  36  45 SE13      29.83F
RED WING       CLOUDY    52  30  43 SE12      29.83F
STANTON        CLOUDY    57  33  40 SE8       29.81F
DODGE CENTER   PTSUNNY   59  43  55 SE13      29.80F
WINONA         CLOUDY    54  32  43 SE7       29.87F
AUSTIN         MOSUNNY   68  30  24 W15G22    29.79F
PRESTON        CLOUDY    56  34  43 E8        29.85F
$$
ABBREVIATIONS USED IN REMARKS
   TC - TEMPERATURES IN CELSIUS
  WCI - WIND CHILL INDEX
   HX - HEAT INDEX
  VSB - VISIBILITY
$$


USA.gov is the U.S. government's official web portal to all federal, state and local government web resources and services.